When you browse on this site, cookies collect data to enhance your experience and personalize the content and advertising you see.
Visit our Privacy Policy to learn more. By continuing to use the site, you agree to this use of cookies and data.
  • In Spain
  • List of Countries
  • For 7 days
  • Water Temperature
  • Weather Map
  • Weather Widgets
  • user-avatar
    Login

    Hourly Weather La Massana

    Today, 17 October, Thursday

    Time Temperature Precipitation Wind Pressure Humidity
    00:00 +5°C° 0 mm 1 mps 609 mmHg 76%
    01:00 +5°C° 0 mm 1 mps 609 mmHg 75%
    02:00 +5°C° 0 mm 1 mps 608 mmHg 74%
    03:00 +5°C° 0 mm 1 mps 608 mmHg 73%
    04:00 +5°C° 0 mm 1 mps 608 mmHg 74%
    05:00 +5°C° 0 mm 1 mps 608 mmHg 75%
    06:00 +4°C° 0 mm 2 mps 608 mmHg 77%
    07:00 +6°C° 0 mm 2 mps 609 mmHg 68%
    08:00 +8°C° 0 mm 2 mps 610 mmHg 59%
    09:00 +10°C° 0 mm 2 mps 611 mmHg 51%
    10:00 +10°C° 0 mm 2 mps 612 mmHg 52%
    11:00 +12°C° 0 mm 2 mps 612 mmHg 53%
    12:00 +12°C° 0 mm 2 mps 612 mmHg 54%
    13:00 +12°C° 0 mm 2 mps 611 mmHg 56%
    14:00 +12°C° 0 mm 2 mps 611 mmHg 59%
    15:00 +12°C° 0 mm 1 mps 611 mmHg 61%
    16:00 +10°C° 0 mm 1 mps 610 mmHg 69%
    17:00 +8°C° 0 mm 1 mps 610 mmHg 78%
    18:00 +5°C° 0 mm 0 mps 609 mmHg 86%
    19:00 +6°C° 0 mm 1 mps 609 mmHg 86%
    20:00 +5°C° 0 mm 1 mps 609 mmHg 87%
    21:00 +5°C° 0 mm 1 mps 609 mmHg 87%
    22:00 +5°C° 0 mm 1 mps 609 mmHg 87%
    23:00 +5°C° 0 mm 1 mps 608 mmHg 87%

    Tomorrow, 18 October, Friday

    Time Temperature Precipitation Wind Pressure Humidity
    00:00 +3°C° 0 mm 2 mps 608 mmHg 87%
    01:00 +4°C° 0 mm 2 mps 608 mmHg 87%
    02:00 +4°C° 0 mm 2 mps 608 mmHg 87%
    03:00 +5°C° 0 mm 2 mps 608 mmHg 88%
    04:00 +5°C° 0 mm 2 mps 608 mmHg 88%
    05:00 +6°C° 0 mm 1 mps 608 mmHg 89%
    06:00 +6°C° 0 mm 1 mps 608 mmHg 90%
    07:00 +7°C° 0 mm 1 mps 609 mmHg 84%
    08:00 +9°C° 0 mm 1 mps 610 mmHg 77%
    09:00 +11°C° 0 mm 1 mps 611 mmHg 71%
    10:00 +11°C° 0 mm 1 mps 611 mmHg 68%
    11:00 +12°C° 0 mm 1 mps 611 mmHg 64%
    12:00 +13°C° 0 mm 2 mps 612 mmHg 61%
    13:00 +12°C° 0.1 mm 2 mps 611 mmHg 64%
    14:00 +12°C° 0.1 mm 2 mps 611 mmHg 67%
    15:00 +10°C° 0.1 mm 2 mps 610 mmHg 70%
    16:00 +9°C° 0.1 mm 2 mps 609 mmHg 77%
    17:00 +8°C° 0.1 mm 2 mps 608 mmHg 84%
    18:00 +6°C° 0.1 mm 2 mps 607 mmHg 92%
    19:00 +6°C° 0 mm 2 mps 607 mmHg 92%
    20:00 +6°C° 0 mm 2 mps 607 mmHg 91%
    21:00 +6°C° 0 mm 2 mps 607 mmHg 91%
    22:00 +6°C° 0.1 mm 2 mps 607 mmHg 91%
    23:00 +6°C° 0.1 mm 2 mps 607 mmHg 91%

    Day after tomorrow, 19 October, Saturday

    Time Temperature Precipitation Wind Pressure Humidity
    00:00 +7°C° 0.1 mm 3 mps 606 mmHg 91%
    01:00 +5°C° 0.1 mm 3 mps 606 mmHg 91%
    02:00 +6°C° 0.1 mm 2 mps 606 mmHg 92%
    03:00 +6°C° 0.1 mm 2 mps 606 mmHg 92%
    04:00 +5°C° 0 mm 2 mps 605 mmHg 92%
    05:00 +5°C° 0 mm 2 mps 605 mmHg 92%
    06:00 +4°C° 0 mm 2 mps 605 mmHg 92%
    07:00 +6°C° 0 mm 2 mps 605 mmHg 87%
    08:00 +7°C° 0 mm 3 mps 606 mmHg 81%
    09:00 +8°C° 0 mm 3 mps 607 mmHg 76%
    10:00 +9°C° 0 mm 3 mps 607 mmHg 73%
    11:00 +9°C° 0 mm 3 mps 607 mmHg 69%
    12:00 +10°C° 0 mm 3 mps 607 mmHg 65%
    13:00 +10°C° 0 mm 3 mps 607 mmHg 65%
    14:00 +9°C° 0 mm 3 mps 606 mmHg 65%
    15:00 +9°C° 0 mm 2 mps 606 mmHg 64%
    16:00 +8°C° 0.1 mm 2 mps 605 mmHg 71%
    17:00 +7°C° 0.1 mm 2 mps 605 mmHg 77%
    18:00 +6°C° 0.1 mm 2 mps 604 mmHg 83%
    19:00 +6°C° 0.1 mm 2 mps 604 mmHg 86%
    20:00 +6°C° 0.1 mm 2 mps 604 mmHg 88%
    21:00 +5°C° 0.1 mm 3 mps 604 mmHg 91%
    22:00 +5°C° 0.3 mm 3 mps 604 mmHg 92%
    23:00 +5°C° 0.3 mm 3 mps 604 mmHg 92%

    20 October, Sunday

    Time Temperature Precipitation Wind Pressure Humidity
    00:00 +5°C° 0.3 mm 4 mps 604 mmHg 93%
    01:00 +5°C° 0.1 mm 3 mps 603 mmHg 93%
    02:00 +5°C° 0.1 mm 3 mps 603 mmHg 93%
    03:00 +4°C° 0.1 mm 3 mps 603 mmHg 93%
    04:00 +5°C° 0 mm 2 mps 603 mmHg 93%
    05:00 +4°C° 0 mm 2 mps 603 mmHg 93%
    06:00 +4°C° 0 mm 2 mps 602 mmHg 93%
    07:00 +4°C° 0.9 mm 2 mps 603 mmHg 93%
    08:00 +5°C° 0.9 mm 2 mps 603 mmHg 93%
    09:00 +5°C° 0.9 mm 2 mps 604 mmHg 93%
    10:00 +5°C° 1.8 mm 2 mps 603 mmHg 92%
    11:00 +4°C° 1.8 mm 3 mps 603 mmHg 91%
    12:00 +5°C° 1.8 mm 3 mps 603 mmHg 89%
    13:00 +5°C° 1.5 mm 2 mps 603 mmHg 90%
    14:00 +5°C° 1.5 mm 2 mps 603 mmHg 90%
    15:00 +4°C° 1.5 mm 2 mps 603 mmHg 91%
    16:00 +4°C° 0.1 mm 2 mps 603 mmHg 92%
    17:00 +4°C° 0.1 mm 1 mps 604 mmHg 94%
    18:00 +3°C° 0.1 mm 1 mps 604 mmHg 95%
    19:00 +3°C° 0 mm 1 mps 604 mmHg 95%
    20:00 +3°C° 0 mm 1 mps 605 mmHg 95%
    21:00 +2°C° 0 mm 1 mps 605 mmHg 95%
    22:00 +2°C° 0 mm 1 mps 605 mmHg 95%
    23:00 +2°C° 0 mm 1 mps 606 mmHg 95%

    21 October, Monday

    Time Temperature Precipitation Wind Pressure Humidity
    00:00 +1°C° 0 mm 1 mps 606 mmHg 94%
    01:00 +1°C° 0 mm 1 mps 606 mmHg 94%
    02:00 +1°C° 0 mm 1 mps 606 mmHg 93%
    03:00 +1°C° 0 mm 1 mps 606 mmHg 92%
    04:00 0°C° 0 mm 0 mps 606 mmHg 92%
    05:00 -1°C° 0 mm 0 mps 607 mmHg 91%
    06:00 -1°C° 0 mm 0 mps 607 mmHg 90%
    07:00 +2°C° 0 mm 1 mps 608 mmHg 86%
    08:00 +4°C° 0 mm 1 mps 609 mmHg 81%
    09:00 +5°C° 0 mm 1 mps 610 mmHg 76%
    10:00 +6°C° 0 mm 1 mps 610 mmHg 70%
    11:00 +6°C° 0 mm 2 mps 610 mmHg 64%
    12:00 +7°C° 0 mm 2 mps 611 mmHg 58%
    13:00 +6°C° 0 mm 2 mps 610 mmHg 60%
    14:00 +6°C° 0 mm 2 mps 610 mmHg 62%
    15:00 +5°C° 0 mm 2 mps 610 mmHg 64%
    16:00 +5°C° 0 mm 1 mps 609 mmHg 73%
    17:00 +4°C° 0 mm 1 mps 609 mmHg 82%
    18:00 +1°C° 0 mm 0 mps 608 mmHg 91%
    19:00 +1°C° 0.1 mm 0 mps 608 mmHg 92%
    20:00 +1°C° 0.1 mm 0 mps 609 mmHg 92%
    21:00 +3°C° 0.1 mm 1 mps 609 mmHg 92%
    22:00 +2°C° 0 mm 1 mps 609 mmHg 92%
    23:00 +2°C° 0 mm 1 mps 608 mmHg 92%

    22 October, Tuesday

    Time Temperature Precipitation Wind Pressure Humidity
    00:00 +2°C° 0 mm 1 mps 608 mmHg 92%
    01:00 +2°C° 0.2 mm 1 mps 608 mmHg 92%
    02:00 +2°C° 0.2 mm 1 mps 608 mmHg 92%
    03:00 +2°C° 0.2 mm 1 mps 607 mmHg 92%
    04:00 +2°C° 2.2 mm 1 mps 607 mmHg 94%
    05:00 +1°C° 2.2 mm 2 mps 607 mmHg 95%
    06:00 +1°C° 2.2 mm 2 mps 606 mmHg 97%
    07:00 +1°C° 3 mm 2 mps 606 mmHg 97%
    08:00 +1°C° 3 mm 2 mps 606 mmHg 97%
    09:00 +2°C° 3 mm 2 mps 606 mmHg 97%
    10:00 +3°C° 1.7 mm 2 mps 606 mmHg 97%
    11:00 +4°C° 1.7 mm 2 mps 606 mmHg 97%
    12:00 +6°C° 1.7 mm 1 mps 606 mmHg 97%
    13:00 +6°C° 4.5 mm 1 mps 606 mmHg 98%
    14:00 +6°C° 4.5 mm 1 mps 606 mmHg 98%
    15:00 +7°C° 4.5 mm 1 mps 605 mmHg 99%
    16:00 +7°C° 5.4 mm 1 mps 605 mmHg 99%
    17:00 +7°C° 5.4 mm 1 mps 605 mmHg 98%
    18:00 +6°C° 5.4 mm 2 mps 605 mmHg 98%
    19:00 +6°C° 0.6 mm 2 mps 605 mmHg 98%
    20:00 +7°C° 0.6 mm 2 mps 605 mmHg 98%
    21:00 +7°C° 0.6 mm 2 mps 605 mmHg 98%
    22:00 +7°C° 0.9 mm 2 mps 605 mmHg 97%
    23:00 +7°C° 0.9 mm 2 mps 604 mmHg 97%
    Show more